When you browse on this site, cookies collect data to enhance your experience and personalize the content and advertising you see.
Visit our Privacy Policy to learn more. By continuing to use the site, you agree to this use of cookies and data.
  • In Österreich
  • Länderverzeichnis
  • Für 7 Tage
  • Wassertemperatur
  • Satellitenkarten
  • Wetterkarte
  • News
  • Widgets
  • user-avatar
    Anmelden

    Stündliche Wetter Towson

    Heute, 23 April, Dienstag

    Zeit Temperatur Niederschläge Wind Luftdruck Luftfeuchtigkeit
    00:00 +14°C° 0 mm 2 m/S 754 mmHg 73%
    01:00 +14°C° 0 mm 2 m/S 754 mmHg 74%
    02:00 +13°C° 0 mm 2 m/S 754 mmHg 75%
    03:00 +13°C° 0 mm 2 m/S 754 mmHg 76%
    04:00 +13°C° 0 mm 1 m/S 754 mmHg 77%
    05:00 +13°C° 0 mm 1 m/S 754 mmHg 75%
    06:00 +14°C° 0 mm 1 m/S 754 mmHg 73%
    07:00 +15°C° 0 mm 1 m/S 754 mmHg 71%
    08:00 +18°C° 0 mm 1 m/S 753 mmHg 64%
    09:00 +20°C° 0 mm 1 m/S 753 mmHg 57%
    10:00 +21°C° 0 mm 2 m/S 753 mmHg 51%
    11:00 +24°C° 0 mm 2 m/S 752 mmHg 47%
    12:00 +25°C° 0 mm 2 m/S 751 mmHg 44%
    13:00 +26°C° 0 mm 3 m/S 751 mmHg 40%
    14:00 +27°C° 0 mm 3 m/S 750 mmHg 40%
    15:00 +27°C° 0 mm 3 m/S 750 mmHg 40%
    16:00 +27°C° 0 mm 3 m/S 749 mmHg 40%
    17:00 +26°C° 0 mm 3 m/S 749 mmHg 45%
    18:00 +23°C° 0 mm 4 m/S 748 mmHg 49%
    19:00 +21°C° 0 mm 4 m/S 748 mmHg 54%
    20:00 +21°C° 0.6 mm 3 m/S 748 mmHg 61%
    21:00 +20°C° 0.6 mm 3 m/S 748 mmHg 68%
    22:00 +19°C° 0.6 mm 3 m/S 748 mmHg 75%
    23:00 +19°C° 0.2 mm 3 m/S 747 mmHg 77%

    Morgen, 24 April, Mittwoch

    Zeit Temperatur Niederschläge Wind Luftdruck Luftfeuchtigkeit
    00:00 +19°C° 0.2 mm 3 m/S 747 mmHg 79%
    01:00 +18°C° 0.2 mm 3 m/S 747 mmHg 82%
    02:00 +18°C° 0.1 mm 4 m/S 747 mmHg 82%
    03:00 +17°C° 0.1 mm 4 m/S 747 mmHg 82%
    04:00 +15°C° 0.1 mm 4 m/S 748 mmHg 82%
    05:00 +14°C° 0 mm 4 m/S 748 mmHg 79%
    06:00 +13°C° 0 mm 5 m/S 748 mmHg 75%
    07:00 +12°C° 0 mm 5 m/S 749 mmHg 72%
    08:00 +13°C° 0 mm 5 m/S 749 mmHg 64%
    09:00 +15°C° 0 mm 5 m/S 749 mmHg 57%
    10:00 +16°C° 0 mm 5 m/S 749 mmHg 50%
    11:00 +17°C° 0 mm 5 m/S 749 mmHg 47%
    12:00 +19°C° 0 mm 5 m/S 749 mmHg 44%
    13:00 +20°C° 0 mm 5 m/S 749 mmHg 41%
    14:00 +20°C° 0 mm 5 m/S 748 mmHg 41%
    15:00 +21°C° 0 mm 5 m/S 748 mmHg 40%
    16:00 +21°C° 0 mm 5 m/S 748 mmHg 40%
    17:00 +19°C° 0 mm 4 m/S 748 mmHg 44%
    18:00 +18°C° 0 mm 4 m/S 748 mmHg 47%
    19:00 +17°C° 0 mm 3 m/S 749 mmHg 51%
    20:00 +16°C° 0 mm 3 m/S 749 mmHg 52%
    21:00 +14°C° 0 mm 3 m/S 750 mmHg 52%
    22:00 +13°C° 0 mm 3 m/S 751 mmHg 53%
    23:00 +12°C° 0 mm 3 m/S 751 mmHg 54%

    übermorgen, 25 April, Donnerstag

    Zeit Temperatur Niederschläge Wind Luftdruck Luftfeuchtigkeit
    00:00 +12°C° 0 mm 3 m/S 751 mmHg 55%
    01:00 +11°C° 0 mm 3 m/S 751 mmHg 56%
    02:00 +12°C° 0 mm 2 m/S 751 mmHg 58%
    03:00 +10°C° 0 mm 2 m/S 751 mmHg 60%
    04:00 +10°C° 0 mm 1 m/S 751 mmHg 62%
    05:00 +11°C° 0 mm 1 m/S 751 mmHg 61%
    06:00 +12°C° 0 mm 1 m/S 752 mmHg 59%
    07:00 +12°C° 0 mm 1 m/S 752 mmHg 58%
    08:00 +15°C° 0 mm 1 m/S 752 mmHg 51%
    09:00 +16°C° 0 mm 0 m/S 752 mmHg 44%
    10:00 +18°C° 0 mm 0 m/S 752 mmHg 38%
    11:00 +21°C° 0 mm 1 m/S 751 mmHg 37%
    12:00 +22°C° 0 mm 1 m/S 751 mmHg 36%
    13:00 +23°C° 0 mm 2 m/S 750 mmHg 36%
    14:00 +23°C° 0 mm 2 m/S 750 mmHg 39%
    15:00 +21°C° 0 mm 3 m/S 749 mmHg 43%
    16:00 +21°C° 0 mm 3 m/S 749 mmHg 47%
    17:00 +20°C° 0.6 mm 3 m/S 749 mmHg 55%
    18:00 +18°C° 0.6 mm 3 m/S 749 mmHg 64%
    19:00 +17°C° 0.6 mm 2 m/S 749 mmHg 72%
    20:00 +16°C° 0.4 mm 3 m/S 749 mmHg 71%
    21:00 +16°C° 0.4 mm 3 m/S 748 mmHg 71%
    22:00 +16°C° 0.4 mm 3 m/S 748 mmHg 70%
    23:00 +14°C° 0 mm 3 m/S 748 mmHg 74%

    26 April, Freitag

    Zeit Temperatur Niederschläge Wind Luftdruck Luftfeuchtigkeit
    00:00 +14°C° 0 mm 3 m/S 747 mmHg 77%
    01:00 +14°C° 0 mm 3 m/S 746 mmHg 81%
    02:00 +14°C° 0.2 mm 3 m/S 746 mmHg 85%
    03:00 +16°C° 0.2 mm 3 m/S 745 mmHg 89%
    04:00 +16°C° 0.2 mm 3 m/S 744 mmHg 94%
    05:00 +16°C° 0.4 mm 3 m/S 744 mmHg 93%
    06:00 +17°C° 0.4 mm 3 m/S 744 mmHg 93%
    07:00 +17°C° 0.4 mm 3 m/S 743 mmHg 93%
    08:00 +18°C° 0.3 mm 4 m/S 743 mmHg 87%
    09:00 +19°C° 0.3 mm 5 m/S 743 mmHg 80%
    10:00 +20°C° 0.3 mm 6 m/S 743 mmHg 74%
    11:00 +19°C° 1 mm 6 m/S 743 mmHg 76%
    12:00 +17°C° 1 mm 6 m/S 743 mmHg 79%
    13:00 +16°C° 1 mm 6 m/S 743 mmHg 81%
    14:00 +17°C° 0.1 mm 6 m/S 744 mmHg 73%
    15:00 +17°C° 0.1 mm 6 m/S 744 mmHg 65%
    16:00 +18°C° 0.1 mm 7 m/S 745 mmHg 56%
    17:00 +17°C° 0 mm 6 m/S 746 mmHg 56%
    18:00 +16°C° 0 mm 5 m/S 746 mmHg 55%
    19:00 +15°C° 0 mm 4 m/S 747 mmHg 55%
    20:00 +14°C° 0 mm 4 m/S 748 mmHg 54%
    21:00 +14°C° 0 mm 4 m/S 749 mmHg 54%
    22:00 +13°C° 0 mm 4 m/S 750 mmHg 54%
    23:00 +12°C° 0 mm 4 m/S 750 mmHg 54%

    27 April, Samstag

    Zeit Temperatur Niederschläge Wind Luftdruck Luftfeuchtigkeit
    00:00 +11°C° 0 mm 4 m/S 751 mmHg 53%
    01:00 +10°C° 0 mm 4 m/S 751 mmHg 53%
    02:00 +8°C° 0 mm 4 m/S 752 mmHg 51%
    03:00 +7°C° 0 mm 4 m/S 752 mmHg 49%
    04:00 +6°C° 0 mm 4 m/S 753 mmHg 48%
    05:00 +7°C° 0 mm 4 m/S 753 mmHg 48%
    06:00 +7°C° 0 mm 4 m/S 754 mmHg 48%
    07:00 +7°C° 0 mm 4 m/S 754 mmHg 48%
    08:00 +10°C° 0 mm 4 m/S 755 mmHg 45%
    09:00 +11°C° 0 mm 4 m/S 755 mmHg 42%
    10:00 +13°C° 0 mm 4 m/S 755 mmHg 39%
    11:00 +14°C° 0 mm 3 m/S 755 mmHg 36%
    12:00 +16°C° 0 mm 3 m/S 754 mmHg 33%
    13:00 +17°C° 0 mm 2 m/S 753 mmHg 30%
    14:00 +17°C° 0 mm 2 m/S 753 mmHg 31%
    15:00 +18°C° 0 mm 2 m/S 753 mmHg 32%
    16:00 +18°C° 0 mm 2 m/S 753 mmHg 33%
    17:00 +17°C° 0 mm 2 m/S 753 mmHg 35%
    18:00 +15°C° 0 mm 2 m/S 753 mmHg 38%
    19:00 +14°C° 0 mm 1 m/S 753 mmHg 40%
    20:00 +14°C° 0 mm 2 m/S 753 mmHg 40%
    21:00 +13°C° 0 mm 3 m/S 753 mmHg 41%
    22:00 +13°C° 0 mm 4 m/S 754 mmHg 41%
    23:00 +12°C° 0 mm 4 m/S 753 mmHg 42%

    28 April, Sonntag

    Zeit Temperatur Niederschläge Wind Luftdruck Luftfeuchtigkeit
    00:00 +12°C° 0 mm 4 m/S 753 mmHg 44%
    01:00 +12°C° 0 mm 5 m/S 753 mmHg 45%
    02:00 +12°C° 0 mm 5 m/S 752 mmHg 46%
    03:00 +12°C° 0 mm 5 m/S 752 mmHg 47%
    04:00 +11°C° 0 mm 6 m/S 752 mmHg 47%
    05:00 +11°C° 0 mm 6 m/S 752 mmHg 50%
    06:00 +11°C° 0 mm 6 m/S 752 mmHg 52%
    07:00 +13°C° 0 mm 6 m/S 752 mmHg 54%
    08:00 +14°C° 0 mm 6 m/S 751 mmHg 54%
    09:00 +16°C° 0 mm 6 m/S 751 mmHg 53%
    10:00 +19°C° 0 mm 6 m/S 751 mmHg 53%
    11:00 +21°C° 0 mm 6 m/S 751 mmHg 52%
    12:00 +23°C° 0 mm 6 m/S 751 mmHg 50%
    13:00 +26°C° 0 mm 6 m/S 750 mmHg 49%
    14:00 +26°C° 0 mm 5 m/S 750 mmHg 49%
    15:00 +26°C° 0 mm 5 m/S 751 mmHg 50%
    16:00 +26°C° 0 mm 4 m/S 751 mmHg 50%
    17:00 +23°C° 0 mm 4 m/S 751 mmHg 53%
    18:00 +22°C° 0 mm 4 m/S 752 mmHg 56%
    19:00 +20°C° 0 mm 3 m/S 753 mmHg 59%
    20:00 +19°C° 0 mm 3 m/S 753 mmHg 57%
    21:00 +17°C° 0 mm 4 m/S 754 mmHg 54%
    22:00 +15°C° 0 mm 4 m/S 755 mmHg 52%
    23:00 +14°C° 0 mm 4 m/S 756 mmHg 56%
    Mehr zeigen